Previsão horária em Plotki

Hoje, 7 Março, Domingo

Tempo Temperatura Precipitação Vento Pressão Humidade
00:00 -9°C° 0.2 mm 6 m/s 736 mmHg 82%
01:00 -8°C° 0.2 mm 6 m/s 735 mmHg 81%
02:00 -7°C° 0 mm 8 m/s 734 mmHg 79%
03:00 -7°C° 0.4 mm 8 m/s 732 mmHg 83%
04:00 -7°C° 0.4 mm 8 m/s 731 mmHg 87%
05:00 -7°C° 0.4 mm 8 m/s 730 mmHg 90%
06:00 -7°C° 0.6 mm 8 m/s 729 mmHg 90%
07:00 -7°C° 0.6 mm 8 m/s 728 mmHg 90%
08:00 -6°C° 0 mm 8 m/s 727 mmHg 90%
09:00 -6°C° 1 mm 7 m/s 727 mmHg 89%
10:00 -6°C° 1 mm 6 m/s 727 mmHg 89%
11:00 -7°C° 1 mm 5 m/s 726 mmHg 89%
12:00 -5°C° 0.2 mm 4 m/s 726 mmHg 86%
13:00 -5°C° 0.2 mm 4 m/s 726 mmHg 82%
14:00 -5°C° 0 mm 5 m/s 726 mmHg 77%
15:00 -6°C° 0.2 mm 5 m/s 726 mmHg 74%
16:00 -6°C° 0.2 mm 5 m/s 726 mmHg 70%
17:00 -6°C° 0.2 mm 5 m/s 727 mmHg 67%
18:00 -7°C° 0 mm 4 m/s 727 mmHg 70%
19:00 -8°C° 0 mm 4 m/s 727 mmHg 74%
20:00 -8°C° 0 mm 4 m/s 728 mmHg 77%
21:00 -8°C° 0 mm 4 m/s 728 mmHg 79%
22:00 -9°C° 0 mm 4 m/s 728 mmHg 80%
23:00 -9°C° 0 mm 4 m/s 728 mmHg 82%

Amanhã, 8 Março, Segunda-feira

Tempo Temperatura Precipitação Vento Pressão Humidade
00:00 -9°C° 0 mm 4 m/s 728 mmHg 84%
01:00 -9°C° 0 mm 4 m/s 728 mmHg 86%
02:00 -10°C° 0 mm 5 m/s 728 mmHg 89%
03:00 -9°C° 0.1 mm 4 m/s 728 mmHg 90%
04:00 -9°C° 0.1 mm 4 m/s 729 mmHg 91%
05:00 -10°C° 0.1 mm 4 m/s 729 mmHg 92%
06:00 -10°C° 0 mm 4 m/s 729 mmHg 91%
07:00 -11°C° 0 mm 4 m/s 730 mmHg 89%
08:00 -11°C° 0 mm 4 m/s 731 mmHg 87%
09:00 -10°C° 0 mm 4 m/s 731 mmHg 84%
10:00 -10°C° 0 mm 4 m/s 732 mmHg 82%
11:00 -8°C° 0 mm 3 m/s 733 mmHg 79%
12:00 -9°C° 0 mm 4 m/s 733 mmHg 79%
13:00 -9°C° 0 mm 4 m/s 734 mmHg 78%
14:00 -8°C° 0 mm 4 m/s 734 mmHg 78%
15:00 -9°C° 0.1 mm 4 m/s 735 mmHg 80%
16:00 -10°C° 0.1 mm 4 m/s 735 mmHg 81%
17:00 -10°C° 0.1 mm 4 m/s 736 mmHg 83%
18:00 -10°C° 0 mm 3 m/s 736 mmHg 85%
19:00 -12°C° 0 mm 3 m/s 737 mmHg 88%
20:00 -13°C° 0 mm 3 m/s 738 mmHg 90%
21:00 -12°C° 0 mm 2 m/s 738 mmHg 91%
22:00 -13°C° 0 mm 2 m/s 739 mmHg 92%
23:00 -14°C° 0 mm 2 m/s 739 mmHg 93%

Depois de amanhã, 9 Março, Terça-feira

Tempo Temperatura Precipitação Vento Pressão Humidade
00:00 -14°C° 0 mm 2 m/s 739 mmHg 94%
01:00 -15°C° 0 mm 2 m/s 740 mmHg 94%
02:00 -15°C° 0 mm 2 m/s 740 mmHg 95%
03:00 -16°C° 0 mm 2 m/s 740 mmHg 95%
04:00 -16°C° 0 mm 2 m/s 741 mmHg 95%
05:00 -16°C° 0 mm 2 m/s 741 mmHg 96%
06:00 -16°C° 0 mm 2 m/s 741 mmHg 93%
07:00 -15°C° 0 mm 2 m/s 742 mmHg 91%
08:00 -15°C° 0 mm 2 m/s 742 mmHg 89%
09:00 -13°C° 0 mm 2 m/s 742 mmHg 85%
10:00 -12°C° 0 mm 2 m/s 743 mmHg 80%
11:00 -10°C° 0 mm 2 m/s 743 mmHg 75%
12:00 -9°C° 0 mm 2 m/s 743 mmHg 73%
13:00 -9°C° 0 mm 2 m/s 743 mmHg 72%
14:00 -8°C° 0 mm 2 m/s 743 mmHg 70%
15:00 -8°C° 0 mm 2 m/s 743 mmHg 75%
16:00 -8°C° 0 mm 1 m/s 743 mmHg 79%
17:00 -8°C° 0 mm 1 m/s 743 mmHg 83%
18:00 -9°C° 0 mm 1 m/s 743 mmHg 85%
19:00 -9°C° 0 mm 1 m/s 744 mmHg 88%
20:00 -9°C° 0 mm 1 m/s 744 mmHg 90%
21:00 -10°C° 0.3 mm 2 m/s 744 mmHg 91%
22:00 -10°C° 0.3 mm 2 m/s 744 mmHg 92%
23:00 -10°C° 0.3 mm 3 m/s 743 mmHg 94%

10 Março, Quarta-feira

Tempo Temperatura Precipitação Vento Pressão Humidade
00:00 -10°C° 0.4 mm 3 m/s 743 mmHg 93%
01:00 -9°C° 0.4 mm 2 m/s 743 mmHg 92%
02:00 -9°C° 0.4 mm 2 m/s 743 mmHg 91%
03:00 -9°C° 0.3 mm 2 m/s 743 mmHg 92%
04:00 -8°C° 0.3 mm 2 m/s 743 mmHg 92%
05:00 -8°C° 0.3 mm 2 m/s 743 mmHg 93%
06:00 -9°C° 0.6 mm 2 m/s 743 mmHg 93%
07:00 -9°C° 0.6 mm 2 m/s 744 mmHg 93%
08:00 -10°C° 0.6 mm 3 m/s 744 mmHg 93%
09:00 -12°C° 0.5 mm 3 m/s 744 mmHg 93%
10:00 -12°C° 0.5 mm 4 m/s 744 mmHg 92%
11:00 -12°C° 0.5 mm 4 m/s 745 mmHg 91%
12:00 -12°C° 0.2 mm 4 m/s 745 mmHg 90%
13:00 -12°C° 0.2 mm 4 m/s 745 mmHg 89%
14:00 -12°C° 0.2 mm 4 m/s 745 mmHg 88%
15:00 -12°C° 0.1 mm 4 m/s 746 mmHg 88%
16:00 -14°C° 0.1 mm 4 m/s 746 mmHg 88%
17:00 -14°C° 0.1 mm 4 m/s 746 mmHg 88%
18:00 -15°C° 0 mm 4 m/s 746 mmHg 88%
19:00 -16°C° 0 mm 4 m/s 747 mmHg 87%
20:00 -17°C° 0 mm 4 m/s 747 mmHg 87%
21:00 -17°C° 0 mm 4 m/s 747 mmHg 86%
22:00 -17°C° 0 mm 3 m/s 748 mmHg 85%
23:00 -18°C° 0 mm 3 m/s 748 mmHg 84%

11 Março, Quinta-feira

Tempo Temperatura Precipitação Vento Pressão Humidade
00:00 -18°C° 0 mm 3 m/s 748 mmHg 84%
01:00 -19°C° 0 mm 3 m/s 748 mmHg 84%
02:00 -19°C° 0 mm 3 m/s 748 mmHg 84%
03:00 -19°C° 0 mm 3 m/s 748 mmHg 84%
04:00 -21°C° 0 mm 3 m/s 748 mmHg 84%
05:00 -21°C° 0 mm 3 m/s 748 mmHg 84%
06:00 -21°C° 0 mm 3 m/s 748 mmHg 84%
07:00 -21°C° 0 mm 3 m/s 749 mmHg 84%
08:00 -19°C° 0 mm 3 m/s 749 mmHg 83%
09:00 -18°C° 0 mm 3 m/s 748 mmHg 83%
10:00 -17°C° 0 mm 4 m/s 748 mmHg 83%
11:00 -16°C° 0 mm 4 m/s 748 mmHg 83%
12:00 -15°C° 0 mm 4 m/s 748 mmHg 84%
13:00 -14°C° 0 mm 4 m/s 748 mmHg 84%
14:00 -12°C° 0 mm 4 m/s 748 mmHg 85%
15:00 -12°C° 0 mm 4 m/s 747 mmHg 86%
16:00 -12°C° 0 mm 4 m/s 747 mmHg 88%
17:00 -12°C° 0 mm 4 m/s 747 mmHg 90%
18:00 -14°C° 0 mm 4 m/s 747 mmHg 91%
19:00 -15°C° 0 mm 4 m/s 747 mmHg 92%
20:00 -15°C° 0 mm 4 m/s 746 mmHg 92%
21:00 -15°C° 0 mm 5 m/s 746 mmHg 92%
22:00 -15°C° 0 mm 5 m/s 746 mmHg 92%
23:00 -15°C° 0 mm 5 m/s 745 mmHg 92%

12 Março, Sexta-feira

Tempo Temperatura Precipitação Vento Pressão Humidade
00:00 -14°C° 0 mm 5 m/s 745 mmHg 92%
01:00 -15°C° 0 mm 6 m/s 744 mmHg 91%
02:00 -15°C° 0 mm 6 m/s 743 mmHg 90%
03:00 -14°C° 0 mm 6 m/s 742 mmHg 88%
04:00 -14°C° 0 mm 7 m/s 741 mmHg 86%
05:00 -14°C° 0 mm 7 m/s 741 mmHg 84%
06:00 -13°C° 0 mm 7 m/s 740 mmHg 82%
07:00 -12°C° 0 mm 8 m/s 739 mmHg 79%
08:00 -11°C° 0 mm 8 m/s 739 mmHg 77%
09:00 -11°C° 0.7 mm 8 m/s 738 mmHg 82%
10:00 -10°C° 0.7 mm 8 m/s 737 mmHg 87%
11:00 -8°C° 0.7 mm 8 m/s 737 mmHg 92%
12:00 -8°C° 0.9 mm 8 m/s 736 mmHg 91%
13:00 -7°C° 0.9 mm 8 m/s 736 mmHg 91%
14:00 -7°C° 0.9 mm 7 m/s 735 mmHg 91%
15:00 -6°C° 0.2 mm 7 m/s 735 mmHg 91%
16:00 -5°C° 0.2 mm 6 m/s 734 mmHg 92%
17:00 -5°C° 0.2 mm 6 m/s 734 mmHg 92%
18:00 -5°C° 0.6 mm 5 m/s 733 mmHg 94%
19:00 -4°C° 0.6 mm 5 m/s 733 mmHg 95%
20:00 -4°C° 0.6 mm 5 m/s 733 mmHg 96%
21:00 -2°C° 0.7 mm 5 m/s 733 mmHg 97%
22:00 -2°C° 0.7 mm 4 m/s 733 mmHg 97%
23:00 -1°C° 0.7 mm 4 m/s 733 mmHg 97%
Mostrar mais

Necessitamos do seu Consentimento

A Meteoprog e os seus Fornecedores de Serviços podem armazenar e aceder a dados pessoais como cookies, identificadores do dispositivo ou outras tecnologias semelhantes existentes no seu dispositivo e processar estes dados para personalizar conteúdos e anúncios, assim como funcionalidades nas redes sociais e análise de tráfego.

  • Armazenar e/ou aceder a informações no seu dispositivo

    Os cookies, identificadores do dispositivo ou outras informações podem ser armazenados ou acedidos no seu dispositivo, para os fins acima indicados.

  • Anúncios e conteúdos personalizados, medição de anúncios e conteúdos, dados sobre o público-alvo e desenvolvimento de produtos

    Os anúncios e os conteúdos podem ser personalizados com base num perfil. Podem ser adicionados dados adicionais para uma maior personalização dos anúncios e dos conteúdos. A eficácia dos anúncios e dos conteúdos pode ser medida. Podem ser obtidas informações sobre o público que visualizou os anúncios e os conteúdos. Estes dados podem ser usados para desenvolver ou melhorar sistemas, softwares ou a experiência do utilizador.

Ao clicar em "Eu concordo”, permitirá o uso de cookies, identificadores do dispositivo e web beacons mencionados ou outras tecnologias semelhantes. As configurações do navegador do seu dispositivo podem ser alteradas.

Para certos fins, podem ser invocados interesses legítimos ao invés de consentimento. Pode ler mais informação sobre este assunto na nossa Política de Privacidade e Cookies.